Printer-friendly version
Follow the MPC on Twitter Follow the MPC on Facebook The MPC blog
Minor Planet Center

MPEC 2008-C105: 2008 CK119

The following Minor Planet Electronic Circular may be linked-to from your own Web pages, but must not otherwise be redistributed electronically.

A form allowing access to any MPEC is at the bottom of this page.


Read MPEC 2008-C104 Read MPEC 2008-C106


M.P.E.C. 2008-C105                               Issued 2008 Feb. 15, 03:53 UT

     The Minor Planet Electronic Circulars contain information on unusual
         minor planets and routine data on comets.  They are published
   on behalf of Commission 20 of the International Astronomical Union by the
          Minor Planet Center, Smithsonian Astrophysical Observatory,
                          Cambridge, MA 02138, U.S.A.

             Prepared using the Tamkin Foundation Computer Network

                              MPC@CFA.HARVARD.EDU
          URL http://www.cfa.harvard.edu/iau/mpc.html  ISSN 1523-6714

                                  2008 CK119

Observations:
     K08CB9K* C2008 02 13.21760 09 31 20.36 +25 59 26.2          19.7   EC105704
     K08CB9K  C2008 02 13.22950 09 31 17.58 +25 57 34.9          20.0   EC105704
     K08CB9K  C2008 02 13.24152 09 31 14.74 +25 55 42.4          19.7   EC105704
     K08CB9K  C2008 02 13.25354 09 31 11.92 +25 53 50.9          19.3   EC105704
     K08CB9K  C2008 02 13.26547 09 31 09.08 +25 52 00.4          19.5   EC105704
     K08CB9K  C2008 02 14.26701809 28 05.83 +23 17 36.1          19.9 V EC105H55
     K08CB9K  C2008 02 14.26929809 28 05.30 +23 17 15.2          19.5 V EC105H55
     K08CB9K  C2008 02 14.27232609 28 04.66 +23 16 47.7          19.4 V EC105H55
     K08CB9K  C2008 02 14.85906 09 26 31.72 +21 48 42.0          19.4 R EC105143
     K08CB9K  C2008 02 14.87923 09 26 27.73 +21 45 46.0          19.5 R EC105143
     K08CB9K  C2008 02 14.89234 09 26 25.17 +21 43 52.2          19.0 R EC105A24
     K08CB9K  C2008 02 14.89377 09 26 24.90 +21 43 39.3          19.2 R EC105A24
     K08CB9K  C2008 02 14.89541 09 26 24.53 +21 43 24.9          19.0 R EC105A24
     K08CB9K  C2008 02 14.89704 09 26 24.21 +21 43 10.6          19.1 R EC105A24
     K08CB9K  C2008 02 14.89868 09 26 23.90 +21 42 56.3          19.0 R EC105A24
     K08CB9K  C2008 02 14.90032 09 26 23.58 +21 42 42.0          19.1 R EC105A24
     K08CB9K  C2008 02 14.90471 09 26 22.65 +21 42 03.4          18.7 R EC105A24
     K08CB9K  C2008 02 14.90778 09 26 22.05 +21 41 36.6          19.0 R EC105A24

Observer details:
143 Gnosca.  Observer S. Sposetti.  0.40-m f/4 reflector + CCD.
704 Lincoln Laboratory ETS, New Mexico.  Observers M. Bezpalko, D. Torres,
    R. Kracke, G. Spitz, J. Kistler.  Measurers J. Stuart, S. Scruggs.  1.0-m
    f/2.15 reflector + CCD.
A24 New Millennium Observatory, Mozzate.  Observer E. Cozzi.  0.36-m f/7.6
    Schmidt-Cassegrain + CCD.
H55 Astronomical Research Observatory, Charleston.  Observer R. Holmes.
    Measurers H. Devore, P. Miller.  0.81-m f/4.0 astrograph + CCD.

Orbital elements:
2008 CK119                                               Earth MOID = 0.0628 AU
Epoch 2007 Oct. 27.0 TT = JDT 2454400.5                 MPC
M 311.95853              (2000.0)            P               Q
n   0.75737624     Peri.  129.19412     -0.12184730     -0.98878645
a   1.1919598      Node   327.49240     +0.85392382     -0.06009152
e   0.1549913      Incl.    9.24515     +0.50593216     -0.13671275
P   1.30           H   24.5           G   0.15           U   7
Residuals in seconds of arc
080213 704  0.6-  1.1+    080214 H55  0.4-  0.0     080214 A24  0.2-  0.1-
080213 704  0.2-  0.0     080214 H55  0.1-  0.1+    080214 A24  0.1-  0.2-
080213 704  0.1-  0.8-    080214 143  0.3+  0.0     080214 A24  0.1+  0.1-
080213 704  0.5+  0.5-    080214 143  0.0   0.3+    080214 A24  0.2+  0.0
080213 704  0.6+  0.2+    080214 A24  0.1+  0.3+    080214 A24  0.4-  0.1-
080214 H55  0.1+  0.1+    080214 A24  0.4+  0.1-    080214 A24  0.2-  0.0

Ephemeris:
2008 CK119               a,e,i = 1.19, 0.15, 9                   q = 1.0072
Date    TT    R. A. (2000) Decl.     Delta      r     Elong.  Phase     V
2008 02 14    09 28.90   +23 58.9    0.0666   1.053   168.5    10.8    19.4
2008 02 19    09 17.03   +12 32.5    0.0753   1.062   167.8    11.4    19.7
2008 02 24    09 09.60   +03 49.5    0.0875   1.072   160.1    18.3    20.3
2008 02 29    09 05.36   -02 29.5    0.102    1.083   153.1    24.5    20.9
2008 03 05    09 03.60   -06 59.1    0.119    1.094   147.4    29.3    21.3
2008 03 10    09 03.88   -10 09.9    0.137    1.105   142.8    32.9    21.8
2008 03 15    09 05.90   -12 25.4    0.156    1.117   139.0    35.8    22.2

Sonia Keys                   (C) Copyright 2008 MPC           M.P.E.C. 2008-C105

Read MPEC 2008-C104 Read MPEC 2008-C106


MPEC number:

Enter an MPEC number in one of the following forms:

  • 1997-B01 (the full form)
  • J97B01 (the packed version of the full form)
  • B01 (the abbreviated form)

Valid HTML 4.01!